Погода в Црау

Россия / Республика Северная Осетия — Алания     43°03′06″N   44°10′50″E
темп.,
°C
ветер,
м/с
пор.,
м/с
влажн.,
%
обл.,
%
осадки,
мм/ч
давл.,
гПа
погр.,
м
13 апреля, вт
вт1300:00+5ссз1292100 0.1 1023351
03:00+5ссв1195100 0.8 1023186
06:00+5с1196100 0.3 1022151
09:00+5с1195100 2.3 1022182
12:00+6с2293100 1.8 1021342
15:00+6с2193100 1.9 1021385
18:00+6сз1295100 0.1 1021196
21:00+5ююв1295100 6.0 1021146
14 апреля, ср
ср1400:00+5ссв119799 1.4 1020107
03:00+4ссв009594 1.4 101954
06:00+4юв1193100 0.1 101925
09:00+7с2182100 0.1 1018483
12:00+9ссв327996 0.1 1017799
15:00+9св227699 0.3 1017735
18:00+8ююв127991 0.1 101790
21:00+7ю117664 0.1 101815
15 апреля, чт
чт1500:00+5ююз32672 0.0 101824
03:00+4ююз32582 0.0 101922
06:00+4ююз22600 0.0 101822
09:00+11ссв22525 0.0 1016551
12:00+14ссв32465 0.0 10151106
15:00+15ссв3246100 0.1 10141441
18:00+12св2469100 0.3 1015131
21:00+9юз2273100 0.7 101726
16 апреля, пт
пт1600:00+8ююз226999 0.0 101615
03:00+7ююз2266100 0.0 101717
06:00+7ююз2265100 0.0 101716
09:00+12ссв2159100 0.0 1016501
12:00+15ссв334844 0.1 10141270
15:00+16св334735 0.4 10131514
18:00+14ссв2464100 0.1 1013130
21:00+9з2271100 0.1 101638
17 апреля, сб
сб1700:00+9ююз226819 0.0 101615
03:00+9юз1166100 0.1 101618
06:00+7ссз229192 0.1 1018284
09:00+7с2296100 0.3 1020348
12:00+7ссз2395100 0.3 1020337
15:00+5ссз2396100 1.4 1023343
18:00+5с1196100 0.7 1024210
21:00+5всв1194100 0.8 1022121